Home   Weather   Chicago   Past weeks
Flag for USA

Past Weather in Chicago, Illinois, USA — Yesterday and Last 2 Weeks

Now
29 °F

Clear.


Feels Like: 29 °F
Forecast: 44 / 31 °F
Wind: No wind

Location: Chicago Midway Airport

Current Time: Mar 23, 2019 at 4:38:08 am

Latest Report: Mar 23, 2019 at 3:53 am


Visibility: 10 mi

Pressure: 30.30 "Hg

Humidity: 85%

Dew Point: 25 °F

Location of ChicagoLocation

Past Weather in Chicago — Graph

°F

Chicago Temperature Yesterday

Maximum temperature yesterday: 45 °F (at 10:53 am)
Minimum temperature yesterday: 33 °F (at 10:53 pm)
Average temperature yesterday: 39 °F

High & Low Weather Summary for the Past Weeks

 TemperatureHumidityPressure
High63 °F (Mar 14, 2:53 pm)100% (Mar 15, 5:53 am)30.44 "Hg (Mar 15, 5:53 am)
Low26 °F (Mar 8, 1:53 am)31% (Mar 17, 2:53 pm)29.27 "Hg (Mar 14, 2:16 pm)
Average39 °F70%30.08 "Hg
* Reported Mar 8 1:53 am — Mar 23 2:53 am, Chicago. Weather by CustomWeather, © 2019

Note: Actual official high and low records may vary slightly from our data, if they occured in-between our weather recording intervals... More about our weather records

Advertising

Chicago Weather History for the Previous 24 Hours

Scroll right to see more
 ConditionsComfort  
Time TempWeatherWind HumidityBarometerVisibility
2:53 am
Sat, Mar 23
30 °FClear.3 mph79%30.29 "Hg10 mi
1:53 am30 °FClear.No wind82%30.28 "Hg10 mi
12:53 am32 °FClear.No wind75%30.27 "Hg10 mi
11:53 pm
Fri, Mar 22
33 °FClear.5 mph75%30.27 "Hg10 mi
10:53 pm33 °FClear.5 mph75%30.28 "Hg10 mi
9:53 pm34 °FClear.6 mph70%30.28 "Hg10 mi
8:53 pm34 °FClear.10 mph70%30.26 "Hg10 mi
7:53 pm34 °FClear.7 mph70%30.26 "Hg10 mi
6:53 pm35 °FPassing clouds.13 mph64%30.25 "Hg10 mi
5:53 pm38 °FPassing clouds.12 mph60%30.23 "Hg10 mi
4:53 pm39 °FPassing clouds.14 mph57%30.22 "Hg10 mi
3:53 pm40 °FPassing clouds.15 mph55%30.20 "Hg10 mi
2:53 pm41 °FPassing clouds.14 mph55%30.18 "Hg10 mi
1:53 pm42 °FPassing clouds.15 mph55%30.17 "Hg10 mi
12:53 pm44 °FPassing clouds.17 mph51%30.16 "Hg10 mi
11:53 am44 °FScattered clouds.20 mph49%30.14 "Hg10 mi
10:53 am45 °FScattered clouds.21 mph44%30.11 "Hg10 mi
9:53 am44 °FPassing clouds.20 mph43%30.09 "Hg10 mi
8:53 am42 °FPassing clouds.12 mph51%30.06 "Hg10 mi
7:53 am39 °FPassing clouds.12 mph60%30.04 "Hg10 mi
6:53 am38 °FPassing clouds.10 mph73%30.01 "Hg10 mi
5:53 am39 °FClear.13 mph76%29.98 "Hg10 mi
4:53 am37 °FClear.8 mph79%29.95 "Hg10 mi
Weather by CustomWeather, © 2019

See weather overview